Time,TemperatureF,DewpointF,PressureIn,WindDirection,WindDirectionDegrees,WindSpeedMPH,WindSpeedGustMPH,Humidity,HourlyPrecipIn,Conditions,Clouds,dailyrainin,SolarRadiationWatts/m^2,SoftwareType,DateUTC
2013-08-04 00:05:00,79.3,62.7,30.04,West,276,1.0,1.0,57,0.00,,,0.00,0,Wunderground v.1.15,2013-08-03 22:05:00,
2013-08-04 00:15:00,78.9,62.4,30.04,West,276,1.0,1.0,57,0.00,,,0.00,0,Wunderground v.1.15,2013-08-03 22:15:00,
2013-08-04 00:25:00,78.7,62.7,30.04,West,277,0.0,0.0,58,0.00,,,0.00,0,Wunderground v.1.15,2013-08-03 22:25:00,
2013-08-04 00:30:00,78.5,62.5,30.04,West,276,1.0,2.0,58,0.00,,,0.00,0,Wunderground v.1.15,2013-08-03 22:30:00,
2013-08-04 00:40:00,77.9,61.9,30.04,West,276,2.0,3.0,58,0.00,,,0.00,0,Wunderground v.1.15,2013-08-03 22:40:00,
2013-08-04 00:45:00,77.8,61.8,30.03,West,277,1.0,1.0,58,0.00,,,0.00,0,Wunderground v.1.15,2013-08-03 22:45:00,
2013-08-04 01:05:00,77.4,61.5,30.03,West,276,0.0,1.0,58,0.00,,,0.00,0,Wunderground v.1.15,2013-08-03 23:05:00,
2013-08-04 01:10:00,77.4,61.9,30.03,West,276,1.0,3.0,59,0.00,,,0.00,0,Wunderground v.1.15,2013-08-03 23:10:00,
2013-08-04 01:25:00,77.3,61.9,30.03,West,279,1.0,1.0,59,0.00,,,0.00,0,Wunderground v.1.15,2013-08-03 23:25:00,
2013-08-04 01:35:00,77.2,61.8,30.03,West,279,0.0,0.0,59,0.00,,,0.00,0,Wunderground v.1.15,2013-08-03 23:35:00,
2013-08-04 01:50:00,76.9,61.5,30.03,West,279,0.0,0.0,59,0.00,,,0.00,0,Wunderground v.1.15,2013-08-03 23:50:00,
2013-08-04 02:05:00,76.7,61.8,30.03,West,279,0.0,0.0,60,0.00,,,0.00,0,Wunderground v.1.15,2013-08-04 00:05:00,
2013-08-04 02:15:00,76.3,61.4,30.03,West,279,0.0,2.0,60,0.00,,,0.00,0,Wunderground v.1.15,2013-08-04 00:15:00,
2013-08-04 02:25:00,75.7,59.9,30.03,West,276,1.0,1.0,58,0.00,,,0.00,0,Wunderground v.1.15,2013-08-04 00:25:00,
2013-08-04 02:36:00,75.2,57.9,30.03,West,272,1.0,2.0,55,0.00,,,0.00,0,Wunderground v.1.15,2013-08-04 00:36:00,
2013-08-04 02:50:00,75.3,58.0,30.03,West,279,1.0,1.0,55,0.00,,,0.00,0,Wunderground v.1.15,2013-08-04 00:50:00,
2013-08-04 03:05:00,75.2,55.8,30.02,WNW,299,1.0,1.0,51,0.00,,,0.00,0,Wunderground v.1.15,2013-08-04 01:05:00,
2013-08-04 03:15:00,75.4,56.0,30.02,WNW,299,1.0,1.0,51,0.00,,,0.00,0,Wunderground v.1.15,2013-08-04 01:15:00,
2013-08-04 03:25:00,75.6,58.3,30.02,WNW,299,0.0,0.0,55,0.00,,,0.00,0,Wunderground v.1.15,2013-08-04 01:25:00,
2013-08-04 03:35:00,75.4,56.0,30.02,WNW,288,0.0,3.0,51,0.00,,,0.00,0,Wunderground v.1.15,2013-08-04 01:35:00,
2013-08-04 03:50:00,75.2,55.8,30.02,WNW,286,0.0,0.0,51,0.00,,,0.00,0,Wunderground v.1.15,2013-08-04 01:50:00,
2013-08-04 04:05:00,74.7,53.7,30.01,WNW,296,1.0,1.0,48,0.00,,,0.00,0,Wunderground v.1.15,2013-08-04 02:05:00,
2013-08-04 04:20:00,74.9,52.7,30.02,WNW,295,1.0,1.0,46,0.00,,,0.00,0,Wunderground v.1.15,2013-08-04 02:20:00,
2013-08-04 04:31:00,75.0,52.2,30.02,WNW,295,1.0,1.0,45,0.00,,,0.00,0,Wunderground v.1.15,2013-08-04 02:31:00,
2013-08-04 04:40:00,75.3,56.5,30.02,WNW,296,0.0,1.0,52,0.00,,,0.00,0,Wunderground v.1.15,2013-08-04 02:40:00,
2013-08-04 04:50:00,75.1,56.8,30.01,WNW,296,0.0,0.0,53,0.00,,,0.00,0,Wunderground v.1.15,2013-08-04 02:50:00,
2013-08-04 05:05:00,74.6,53.0,30.01,WNW,295,2.0,2.0,47,0.00,,,0.00,0,Wunderground v.1.15,2013-08-04 03:05:00,
2013-08-04 05:20:00,74.7,53.1,30.01,WNW,295,1.0,1.0,47,0.00,,,0.00,0,Wunderground v.1.15,2013-08-04 03:20:00,
2013-08-04 05:35:00,74.8,54.4,30.01,WNW,296,0.0,0.0,49,0.00,,,0.00,0,Wunderground v.1.15,2013-08-04 03:35:00,
2013-08-04 05:40:00,74.7,54.3,30.01,WNW,296,0.0,0.0,49,0.00,,,0.00,0,Wunderground v.1.15,2013-08-04 03:40:00,
2013-08-04 06:40:00,73.8,54.0,30.02,WNW,303,1.0,2.0,50,0.00,,,0.00,0,Wunderground v.1.15,2013-08-04 04:40:00,
2013-08-04 06:50:00,73.8,54.5,30.02,WNW,303,1.0,1.0,51,0.00,,,0.00,0,Wunderground v.1.15,2013-08-04 04:50:00,
2013-08-04 07:05:00,73.7,53.9,30.03,WNW,283,2.0,5.0,50,0.00,,,0.00,16,Wunderground v.1.15,2013-08-04 05:05:00,
2013-08-04 07:20:00,74.2,54.9,30.03,WNW,285,1.0,1.0,51,0.00,,,0.00,39,Wunderground v.1.15,2013-08-04 05:20:00,
2013-08-04 07:26:00,74.2,55.4,30.03,WNW,285,0.0,1.0,52,0.00,,,0.00,47,Wunderground v.1.15,2013-08-04 05:26:00,
2013-08-04 07:40:00,74.1,55.9,30.03,WNW,285,0.0,0.0,53,0.00,,,0.00,83,Wunderground v.1.15,2013-08-04 05:40:00,
2013-08-04 07:50:00,74.2,56.0,30.04,WNW,285,0.0,0.0,53,0.00,,,0.00,105,Wunderground v.1.15,2013-08-04 05:50:00,
2013-08-04 08:05:00,75.1,57.3,30.04,WNW,284,0.0,0.0,54,0.00,,,0.00,149,Wunderground v.1.15,2013-08-04 06:05:00,
2013-08-04 08:15:00,75.8,57.4,30.04,WNW,285,0.0,0.0,53,0.00,,,0.00,176,Wunderground v.1.15,2013-08-04 06:15:00,
2013-08-04 08:25:00,76.6,58.2,30.04,WNW,285,0.0,0.0,53,0.00,,,0.00,204,Wunderground v.1.15,2013-08-04 06:25:00,
2013-08-04 08:35:00,77.7,58.7,30.04,WNW,285,0.0,0.0,52,0.00,,,0.00,236,Wunderground v.1.15,2013-08-04 06:35:00,
2013-08-04 08:45:00,78.7,59.0,30.05,WNW,285,0.0,0.0,51,0.00,,,0.00,271,Wunderground v.1.15,2013-08-04 06:45:00,
2013-08-04 08:56:00,80.0,58.5,30.05,WNW,285,0.0,1.0,48,0.00,,,0.00,246,Wunderground v.1.15,2013-08-04 06:56:00,
2013-08-04 09:05:00,81.3,58.5,30.05,WNW,285,1.0,1.0,46,0.00,,,0.00,334,Wunderground v.1.15,2013-08-04 07:05:00,
2013-08-04 09:10:00,82.0,58.6,30.05,WNW,285,1.0,1.0,45,0.00,,,0.00,350,Wunderground v.1.15,2013-08-04 07:10:00,
2013-08-04 09:20:00,83.1,58.9,30.05,WNW,284,0.0,1.0,44,0.00,,,0.00,381,Wunderground v.1.15,2013-08-04 07:20:00,
2013-08-04 09:30:00,84.3,59.4,30.05,West,263,1.0,1.0,43,0.00,,,0.00,413,Wunderground v.1.15,2013-08-04 07:30:00,
2013-08-04 09:40:00,85.6,59.9,30.05,SW,231,1.0,2.0,42,0.00,,,0.00,443,Wunderground v.1.15,2013-08-04 07:40:00,
2013-08-04 09:50:00,86.4,59.2,30.05,SW,218,1.0,2.0,40,0.00,,,0.00,476,Wunderground v.1.15,2013-08-04 07:50:00,
2013-08-04 10:05:00,87.9,59.1,30.05,ESE,105,1.0,1.0,38,0.00,,,0.00,515,Wunderground v.1.15,2013-08-04 08:05:00,
2013-08-04 10:16:00,88.9,59.3,30.05,ESE,115,1.0,4.0,37,0.00,,,0.00,547,Wunderground v.1.15,2013-08-04 08:16:00,
2013-08-04 10:30:00,89.8,59.3,30.06,SE,137,2.0,3.0,36,0.00,,,0.00,587,Wunderground v.1.15,2013-08-04 08:30:00,
2013-08-04 10:36:00,89.7,59.2,30.06,ESE,112,3.0,3.0,36,0.00,,,0.00,599,Wunderground v.1.15,2013-08-04 08:36:00,
2013-08-04 10:46:00,90.2,58.0,30.06,East,93,2.0,3.0,34,0.00,,,0.00,633,Wunderground v.1.15,2013-08-04 08:46:00,
2013-08-04 11:05:00,91.6,56.7,30.06,SE,142,2.0,3.0,31,0.00,,,0.00,684,Wunderground v.1.15,2013-08-04 09:05:00,
2013-08-04 11:10:00,91.8,56.9,30.06,South,177,2.0,3.0,31,0.00,,,0.00,696,Wunderground v.1.15,2013-08-04 09:10:00,
2013-08-04 11:25:00,91.1,56.3,30.06,SE,131,3.0,3.0,31,0.00,,,0.00,728,Wunderground v.1.15,2013-08-04 09:25:00,
2013-08-04 11:35:00,91.4,56.5,30.07,ESE,113,3.0,3.0,31,0.00,,,0.00,754,Wunderground v.1.15,2013-08-04 09:35:00,
2013-08-04 11:45:00,91.6,55.8,30.07,ESE,121,4.0,4.0,30,0.00,,,0.00,772,Wunderground v.1.15,2013-08-04 09:45:00,
2013-08-04 12:05:00,92.9,56.9,30.07,SE,145,3.0,3.0,30,0.00,,,0.00,812,Wunderground v.1.15,2013-08-04 10:05:00,
2013-08-04 12:15:00,93.1,56.1,30.06,SE,129,2.0,2.0,29,0.00,,,0.00,826,Wunderground v.1.15,2013-08-04 10:15:00,
2013-08-04 12:25:00,93.5,56.5,30.06,SE,142,3.0,4.0,29,0.00,,,0.00,838,Wunderground v.1.15,2013-08-04 10:25:00,
2013-08-04 12:35:00,93.8,56.7,30.06,SSE,149,4.0,4.0,29,0.00,,,0.00,853,Wunderground v.1.15,2013-08-04 10:35:00,
2013-08-04 12:40:00,94.0,57.8,30.06,SE,132,2.0,4.0,30,0.00,,,0.00,858,Wunderground v.1.15,2013-08-04 10:40:00,
2013-08-04 12:55:00,94.6,58.4,30.06,ESE,121,3.0,4.0,30,0.00,,,0.00,874,Wunderground v.1.15,2013-08-04 10:55:00,
2013-08-04 13:05:00,95.2,57.9,30.06,ENE,77,2.0,2.0,29,0.00,,,0.00,879,Wunderground v.1.15,2013-08-04 11:05:00,
2013-08-04 13:15:00,95.6,58.3,30.06,ESE,117,3.0,3.0,29,0.00,,,0.00,884,Wunderground v.1.15,2013-08-04 11:15:00,
2013-08-04 13:30:00,95.7,58.4,30.05,East,93,2.0,3.0,29,0.00,,,0.00,891,Wunderground v.1.15,2013-08-04 11:30:00,
2013-08-04 13:40:00,96.4,58.0,30.05,ESE,107,2.0,2.0,28,0.00,,,0.00,898,Wunderground v.1.15,2013-08-04 11:40:00,
2013-08-04 13:50:00,97.8,59.2,30.05,SE,140,2.0,4.0,28,0.00,,,0.00,902,Wunderground v.1.15,2013-08-04 11:50:00,
2013-08-04 14:05:00,97.7,60.1,30.04,NE,49,3.0,3.0,29,0.00,,,0.00,893,Wunderground v.1.15,2013-08-04 12:05:00,
2013-08-04 14:15:00,98.0,61.3,30.04,SSE,165,4.0,4.0,30,0.00,,,0.00,893,Wunderground v.1.15,2013-08-04 12:15:00,
2013-08-04 14:30:00,97.3,61.6,30.04,SSW,200,4.0,4.0,31,0.00,,,0.00,884,Wunderground v.1.15,2013-08-04 12:30:00,
2013-08-04 14:40:00,96.7,62.0,30.04,South,176,6.0,8.0,32,0.00,,,0.00,881,Wunderground v.1.15,2013-08-04 12:40:00,
2013-08-04 14:50:00,95.7,62.0,30.04,SW,223,6.0,8.0,33,0.00,,,0.00,868,Wunderground v.1.15,2013-08-04 12:50:00,
2013-08-04 14:55:00,95.4,62.6,30.04,South,179,6.0,6.0,34,0.00,,,0.00,863,Wunderground v.1.15,2013-08-04 12:55:00,
2013-08-04 15:10:00,95.2,62.4,30.04,SSW,211,5.0,7.0,34,0.00,,,0.00,847,Wunderground v.1.15,2013-08-04 13:10:00,
2013-08-04 15:20:00,95.3,62.5,30.04,SSW,198,5.0,9.0,34,0.00,,,0.00,835,Wunderground v.1.15,2013-08-04 13:20:00,
2013-08-04 15:31:00,95.4,62.6,30.04,SW,219,5.0,5.0,34,0.00,,,0.00,823,Wunderground v.1.15,2013-08-04 13:31:00,
2013-08-04 15:45:00,95.1,62.3,30.03,South,176,6.0,6.0,34,0.00,,,0.00,798,Wunderground v.1.15,2013-08-04 13:45:00,
2013-08-04 16:05:00,94.5,61.8,30.03,SW,220,6.0,9.0,34,0.00,,,0.00,763,Wunderground v.1.15,2013-08-04 14:05:00,
2013-08-04 16:10:00,94.2,61.5,30.03,West,276,6.0,9.0,34,0.00,,,0.00,752,Wunderground v.1.15,2013-08-04 14:10:00,
2013-08-04 16:25:00,94.1,61.4,30.03,SW,230,5.0,5.0,34,0.00,,,0.00,724,Wunderground v.1.15,2013-08-04 14:25:00,
2013-08-04 16:40:00,93.8,61.2,30.03,SSW,209,5.0,5.0,34,0.00,,,0.00,686,Wunderground v.1.15,2013-08-04 14:40:00,
2013-08-04 16:55:00,93.1,61.4,30.02,SSW,200,5.0,5.0,35,0.00,,,0.00,652,Wunderground v.1.15,2013-08-04 14:55:00,
2013-08-04 17:05:00,93.1,61.4,30.02,WSW,237,5.0,5.0,35,0.00,,,0.00,624,Wunderground v.1.15,2013-08-04 15:05:00,
2013-08-04 17:20:00,92.8,61.1,30.02,SW,232,5.0,9.0,35,0.00,,,0.00,589,Wunderground v.1.15,2013-08-04 15:20:00,
2013-08-04 17:35:00,91.9,60.3,30.02,SSE,163,5.0,7.0,35,0.00,,,0.00,545,Wunderground v.1.15,2013-08-04 15:35:00,
2013-08-04 17:46:00,91.2,59.7,30.02,West,261,6.0,6.0,35,0.00,,,0.00,512,Wunderground v.1.15,2013-08-04 15:46:00,
2013-08-04 18:05:00,91.0,60.3,30.02,WSW,245,4.0,5.0,36,0.00,,,0.00,454,Wunderground v.1.15,2013-08-04 16:05:00,
2013-08-04 18:15:00,90.5,59.9,30.02,SW,236,5.0,8.0,36,0.00,,,0.00,424,Wunderground v.1.15,2013-08-04 16:15:00,
2013-08-04 18:30:00,90.1,60.3,30.02,SSW,201,4.0,4.0,37,0.00,,,0.00,373,Wunderground v.1.15,2013-08-04 16:30:00,
2013-08-04 18:45:00,89.7,61.5,30.01,SW,218,4.0,4.0,39,0.00,,,0.00,329,Wunderground v.1.15,2013-08-04 16:45:00,
2013-08-04 19:05:00,88.9,62.2,30.01,WSW,240,4.0,4.0,41,0.00,,,0.00,267,Wunderground v.1.15,2013-08-04 17:05:00,
2013-08-04 19:11:00,88.9,62.2,30.01,SW,236,3.0,4.0,41,0.00,,,0.00,251,Wunderground v.1.15,2013-08-04 17:11:00,
2013-08-04 19:20:00,88.7,62.0,30.01,South,188,3.0,3.0,41,0.00,,,0.00,220,Wunderground v.1.15,2013-08-04 17:20:00,
2013-08-04 19:25:00,88.7,62.7,30.01,SW,229,3.0,3.0,42,0.00,,,0.00,206,Wunderground v.1.15,2013-08-04 17:25:00,
2013-08-04 19:35:00,88.4,62.4,30.01,SW,231,3.0,5.0,42,0.00,,,0.00,178,Wunderground v.1.15,2013-08-04 17:35:00,
2013-08-04 19:40:00,88.1,62.8,30.01,WSW,247,3.0,3.0,43,0.00,,,0.00,165,Wunderground v.1.15,2013-08-04 17:40:00,
2013-08-04 19:55:00,87.3,63.4,30.01,SW,217,3.0,4.0,45,0.00,,,0.00,127,Wunderground v.1.15,2013-08-04 17:55:00,
2013-08-04 20:10:00,86.6,63.4,30.01,SSE,165,1.0,1.0,46,0.00,,,0.00,86,Wunderground v.1.15,2013-08-04 18:10:00,
2013-08-04 20:25:00,85.9,63.3,30.01,South,178,2.0,2.0,47,0.00,,,0.00,40,Wunderground v.1.15,2013-08-04 18:25:00,
2013-08-04 20:35:00,85.4,63.5,30.01,South,183,1.0,1.0,48,0.00,,,0.00,28,Wunderground v.1.15,2013-08-04 18:35:00,
2013-08-04 20:46:00,85.1,63.8,30.01,SSW,194,1.0,1.0,49,0.00,,,0.00,16,Wunderground v.1.15,2013-08-04 18:46:00,
2013-08-04 21:05:00,84.1,63.5,30.02,SSW,194,2.0,2.0,50,0.00,,,0.00,0,Wunderground v.1.15,2013-08-04 19:05:00,
2013-08-04 21:15:00,83.7,63.7,30.02,SSW,194,0.0,0.0,51,0.00,,,0.00,0,Wunderground v.1.15,2013-08-04 19:15:00,
2013-08-04 21:30:00,83.0,63.6,30.02,SSW,194,1.0,1.0,52,0.00,,,0.00,0,Wunderground v.1.15,2013-08-04 19:30:00,
2013-08-04 21:41:00,82.5,63.6,30.02,SSW,194,0.0,0.0,53,0.00,,,0.00,0,Wunderground v.1.15,2013-08-04 19:41:00,
2013-08-04 21:55:00,81.6,63.3,30.02,SSW,194,1.0,2.0,54,0.00,,,0.00,0,Wunderground v.1.15,2013-08-04 19:55:00,
2013-08-04 22:05:00,80.9,63.7,30.03,WSW,246,2.0,2.0,56,0.00,,,0.00,0,Wunderground v.1.15,2013-08-04 20:05:00,
2013-08-04 22:15:00,80.5,63.4,30.03,WSW,250,2.0,2.0,56,0.00,,,0.00,0,Wunderground v.1.15,2013-08-04 20:15:00,
2013-08-04 22:25:00,80.1,63.5,30.03,WNW,285,3.0,3.0,57,0.00,,,0.00,0,Wunderground v.1.15,2013-08-04 20:25:00,
2013-08-04 22:40:00,79.8,63.7,30.03,WNW,288,2.0,2.0,58,0.00,,,0.00,0,Wunderground v.1.15,2013-08-04 20:40:00,
2013-08-04 22:55:00,79.3,63.7,30.03,WNW,290,2.0,3.0,59,0.00,,,0.00,0,Wunderground v.1.15,2013-08-04 20:55:00,
2013-08-04 23:10:00,78.8,62.8,30.03,WNW,290,2.0,2.0,58,0.00,,,0.00,0,Wunderground v.1.15,2013-08-04 21:10:00,
2013-08-04 23:20:00,78.7,62.7,30.03,WNW,290,2.0,2.0,58,0.00,,,0.00,0,Wunderground v.1.15,2013-08-04 21:20:00,
2013-08-04 23:35:00,78.4,61.4,30.03,WNW,290,2.0,2.0,56,0.00,,,0.00,0,Wunderground v.1.15,2013-08-04 21:35:00,
2013-08-04 23:50:00,78.0,60.0,30.03,WNW,289,3.0,3.0,54,0.00,,,0.00,0,Wunderground v.1.15,2013-08-04 21:50:00,